Location: Crocus Hill
(18.2167°N, 63.0667°W)
Time: 18:05:06
(UTC+00:00)

Cosmos 2184 Rocket - Pass Details

Date: 26 January 2020
Orbit: 959 x 1002 km, 82.9° (Epoch: 23 February)

Event Time Altitude Azimuth Distance (km) Brightness Sun altitude
Exits shadow 09:03:01 44° 242° (WSW) 1,342 4.3 -24.5°
Drops below altitude 10° 09:08:01 10° 196° (SSW) 2,748 6.3 -23.3°
Sets 09:10:38 0° 191° (S) 3,700 7.1 -22.7°
